Location: Buisson
(44.2787°N, 4.9969°E)
Time: 14:44:36
(UTC+00:00)

N. Korean satellite - Pass Details

Date: 01 October 2021
Orbit: 450 x 495 km, 97.3° (Epoch: 19 October)

Event Time Altitude Azimuth Distance (km) Brightness Sun altitude
Rises 03:51:16 0° 34° (NNE) 2,551 11.0 -19.7°
Reaches altitude 10° 03:54:25 10° 64° (ENE) 1,675 10.5 -19.2°
Maximum altitude 03:56:01 13° 91° (E) 1,526 10.1 -18.9°
Drops below altitude 10° 03:57:37 10° 117° (ESE) 1,678 10.0 -18.6°
Sets 04:00:45 0° 148° (SSE) 2,560 10.5 -18.1°
